KF6RAL-6 Weather Reports


Display with metric or nautical units.
time (UTC)temp
F
wind
direction
speed
MPH
gust
MPH
rain 1hr
in
rain 24hr
in
rain mn
in
humidity
%
barometer
mb
20170219114633 0 230 19.0 34.0 0.96 2.41 1.49 1000.1
20170219113932 0 229 18.0 32.0 0.97 2.40 1.48 1000.3
20170219113231 0 0 0.0 17.0 0.81 2.24 1.32 1000.2
20170219112530 0 235 3.0 28.0 0.76 2.13 1.21 999.8
20170219111829 0 212 12.0 45.0 0.85 2.00 1.08 1000.3
20170219111128 0 211 3.0 45.0 0.92 1.98 1.06 1000.2
20170219110427 0 208 11.0 34.0 0.84 1.88 0.96 1000.1
20170219105726 0 227 24.0 33.0 0.53 1.53 0.61 999.8
20170219105025 0 230 10.0 34.0 0.52 1.45 0.53 1000.1
20170219104324 0 220 3.0 34.0 0.52 1.45 0.53 1000.2
20170219103623 0 251 1.0 20.0 0.50 1.43 0.51 1000.0
20170219102922 0 251 11.0 27.0 0.46 1.39 0.47 999.6
20170219102220 0 235 8.0 25.0 0.36 1.29 0.37 1000.1
20170219101519 0 185 10.0 32.0 0.22 1.15 0.23 1000.1
20170219100818 0 221 12.0 43.0 0.13 1.06 0.14 1000.0
20170219100117 0 250 17.0 32.0 0.10 1.03 0.11 1000.0
20170219095416 0 195 12.0 23.0 0.03 0.96 0.04 1000.5
20170219094715 0 0 0.0 13.0 0.00 0.93 0.01 999.8
20170219094014 0 342 7.0 15.0 0.00 0.93 0.01 1000.0
20170219093315 0 0 0.0 0.0 0.01 0.93 0.01 1000.2
20170219092612 0 0 0.0 0.0 0.01 0.93 0.01 1000.1
20170219091911 0 0 0.0 0.0 0.01 0.93 0.01 1000.1
20170219091211 0 0 0.0 0.0 0.01 0.93 0.01 1000.1
20170219090509 0 0 0.0 0.0 0.01 0.94 0.01 1000.1
20170219085808 0 0 0.0 0.0 0.01 0.94 0.01 999.8
20170219085107 0 0 0.0 0.0 0.01 0.94 0.01 1000.0
20170219084406 0 0 0.0 0.0 0.01 0.94 0.01 999.9
20170219083705 0 0 0.0 0.0 0.00 0.93 0.00 999.8
20170219083004 0 0 0.0 0.0 0.00 0.93 0.00 1000.0
20170219082305 0 0 0.0 0.0 0.00 0.93 0.00 999.9
20170219081602 0 0 0.0 0.0 0.00 0.95 0.00 999.8
20170219080901 0 0 0.0 0.0 0.00 0.95 0.00 999.9
20170219080200 0 0 0.0 0.0 0.00 0.95 0.00 1000.0
20170219075459 0 0 0.0 0.0 0.00 0.98 0.00 999.8
20170219074758 0 0 0.0 0.0 0.00 0.98 0.00 999.7
20170219074057 0 0 0.0 0.0 0.00 0.99 0.00 999.8
20170219073356 0 0 0.0 0.0 0.00 1.00 0.00 999.8
20170219072655 0 0 0.0 0.0 0.00 1.00 1.00 1000.0
20170219071954 0 0 0.0 0.0 0.00 1.00 1.00 999.9
20170219071253 0 0 0.0 0.0 0.00 1.00 1.00 999.8
20170219070552 0 0 0.0 0.0 0.00 1.01 1.00 1000.0
20170219065851 0 0 0.0 0.0 0.00 1.04 1.00 1000.1
20170219065150 0 0 0.0 0.0 0.00 1.05 1.00 1000.0
20170219064449 0 0 0.0 0.0 0.00 1.05 1.00 1000.1
20170219063748 0 0 0.0 0.0 0.00 1.05 1.00 999.8
20170219063047 0 0 0.0 0.0 0.00 1.05 1.00 999.9
20170219061645 0 0 0.0 0.0 0.00 1.12 1.00 1000.1
20170219060944 0 0 0.0 0.0 0.00 1.13 1.00 1000.2
20170219060243 0 0 0.0 0.0 0.00 1.15 1.00 1000.2
20170219055542 0 0 0.0 0.0 0.00 1.17 1.00 1000.3
20170219054841 0 0 0.0 0.0 0.00 1.18 1.00 1000.3
20170219054140 0 0 0.0 0.0 0.00 1.19 1.00 1000.4
20170219053441 0 0 0.0 0.0 0.00 1.19 1.00 1000.5
20170219052738 0 0 0.0 0.0 0.00 1.19 1.00 1000.5
20170219052037 0 0 0.0 0.0 0.00 1.20 1.00 1000.4
20170219050635 0 0 0.0 0.0 0.00 1.21 1.00 1000.4
20170219045935 0 0 0.0 0.0 0.00 1.21 1.00 1000.4
20170219045233 0 0 0.0 0.0 0.00 1.21 1.00 1000.4
20170219044532 0 0 0.0 0.0 0.00 1.22 1.00 1000.4
20170219043831 0 0 0.0 0.0 0.00 1.31 1.00 1000.5
20170219043130 0 0 0.0 0.0 0.00 1.31 1.00 1000.6
20170219042429 0 0 0.0 0.0 0.00 1.31 1.00 1000.6
20170219041728 0 0 0.0 0.0 0.00 1.36 1.00 1000.7
20170219041027 0 0 0.0 0.0 0.00 1.42 1.00 1000.7
20170219040326 0 0 0.0 0.0 0.00 1.48 1.00 1000.6
20170219035625 0 0 0.0 0.0 0.00 1.81 1.00 1000.7
20170219034924 0 0 0.0 0.0 0.00 2.16 1.00 1000.7
20170219034223 0 0 0.0 0.0 0.00 2.44 1.00 1000.5
20170219033522 0 0 0.0 0.0 0.00 2.56 1.00 1000.4
20170219032821 0 0 0.0 0.0 0.00 2.86 1.00 1000.5
20170219032120 0 0 0.0 0.0 0.00 3.32 1.00 1000.5
20170219031419 0 0 0.0 0.0 0.00 3.39 1.00 1000.5
20170219030017 0 0 0.0 0.0 0.00 3.43 1.00 1000.3
20170219025316 0 0 0.0 0.0 0.00 3.47 1.00 1000.2
20170219024615 0 0 0.0 0.0 0.00 3.53 1.00 1000.2
20170219023914 0 0 0.0 0.0 0.00 3.56 1.00 1000.2
20170219023213 0 0 0.0 0.0 0.00 3.60 1.00 1000.1
20170219022512 0 0 0.0 9.0 0.00 3.60 1.00 1000.1
20170219021811 0 242 6.0 10.0 0.00 3.65 1.00 1000.0
20170219021110 0 0 0.0 5.0 0.00 3.69 1.00 1000.0
20170219020409 0 0 0.0 0.0 0.00 3.69 1.00 1000.0
20170219015708 0 0 0.0 0.0 0.00 3.69 1.00 999.9
20170219015007 0 0 0.0 0.0 0.00 3.69 1.00 999.9
20170219014306 0 0 0.0 0.0 0.00 3.69 1.00 999.8
20170219013605 0 0 0.0 0.0 0.00 3.69 1.00 999.8
20170219012904 0 0 0.0 0.0 0.00 3.69 1.00 999.8
20170219012203 0 0 0.0 0.0 0.00 3.69 1.00 999.7
20170219011502 0 0 0.0 0.0 0.01 3.69 1.00 999.7
20170219010801 0 0 0.0 0.0 0.03 3.69 1.00 999.6
20170219010100 0 0 0.0 0.0 0.09 3.69 1.00 999.6
20170219005359 0 0 0.0 0.0 0.11 3.69 1.00 999.6
20170219004658 0 0 0.0 0.0 0.13 3.69 1.00 999.6
20170219003957 0 0 0.0 0.0 0.13 3.69 1.00 999.6
20170219003256 0 0 0.0 9.0 0.13 3.69 1.00 999.6
20170219002555 0 0 0.0 10.0 0.13 3.69 1.00 999.6
20170219001854 0 131 1.0 10.0 0.12 3.68 0.99 999.7
20170219001152 0 0 0.0 10.0 0.12 3.68 0.99 999.8
20170219000452 0 0 0.0 10.0 0.05 3.61 0.92 999.8
20170218235050 0 0 0.0 1.0 0.00 3.56 0.87 999.6
20170218234349 0 0 0.0 0.0 0.00 3.56 0.87 999.7
20170218233647 0 0 0.0 0.0 0.00 3.56 0.87 999.8
20170218232946 0 0 0.0 0.0 0.00 3.56 0.87 999.7
20170218232245 0 0 0.0 0.0 0.00 3.56 0.87 999.8
20170218231544 0 0 0.0 0.0 0.00 3.56 0.87 999.7
20170218230846 0 0 0.0 0.0 0.00 3.56 0.87 999.6
20170218230142 0 0 0.0 0.0 0.00 3.56 0.87 999.6
20170218225441 0 0 0.0 0.0 0.00 3.56 0.87 999.6
20170218224933 0 0 0.0 0.0 0.00 3.56 0.87 999.5
20170218224740 0 0 0.0 0.0 0.00 3.56 0.87 999.5
20170218224039 0 0 0.0 0.0 0.00 3.56 0.87 999.7
20170218223338 0 0 0.0 0.0 0.00 3.56 0.87 999.7
20170218222638 0 0 0.0 0.0 0.00 3.56 0.87 999.8
20170218221937 0 0 0.0 0.0 0.00 3.56 0.87 999.9
20170218221235 0 0 0.0 0.0 0.00 3.56 0.87 999.9
20170218220534 0 0 0.0 0.0 0.02 3.56 0.87 1000.0
20170218215134 0 0 0.0 0.0 0.13 3.56 0.87 1000.1
20170218214431 0 0 0.0 0.0 0.13 3.56 0.87 1000.1
20170218213730 0 0 0.0 0.0 0.13 3.56 0.87 1000.2
20170218213030 0 0 0.0 0.0 0.13 3.56 0.87 1000.2
20170218212328 0 0 0.0 0.0 0.13 3.56 0.87 1000.0
20170218211627 0 0 0.0 1.0 0.13 3.56 0.87 1000.2
20170218210926 0 0 0.0 10.0 0.12 3.55 0.86 1000.1
20170218210225 0 127 2.0 13.0 0.11 3.54 0.85 1000.1
20170218205525 0 129 4.0 13.0 0.09 3.52 0.83 1000.2
20170218204823 0 0 0.0 0.0 0.00 3.43 0.74 1000.2
20170218204122 0 0 0.0 0.0 0.00 3.43 0.74 1000.3
20170218203421 0 0 0.0 0.0 0.00 3.43 0.74 1000.3
20170218202720 0 0 0.0 0.0 0.00 3.43 0.74 1000.4
20170218202019 0 0 0.0 0.0 0.00 3.43 0.74 1000.5
20170218201318 0 0 0.0 0.0 0.02 3.43 0.74 1000.6
20170218200617 0 0 0.0 0.0 0.13 3.43 0.74 1000.7
20170218195916 0 0 0.0 0.0 0.16 3.43 0.74 1000.8
20170218195215 0 0 0.0 0.0 0.16 3.43 0.74 1001.0
20170218194514 0 0 0.0 1.0 0.16 3.43 0.74 1000.9
20170218193813 0 0 0.0 9.0 0.16 3.43 0.74 1001.1
20170218193112 0 0 0.0 9.0 0.16 3.43 0.74 1001.2
20170218192411 0 0 0.0 9.0 0.16 3.43 0.74 1001.3
20170218191711 0 131 3.0 16.0 0.16 3.43 0.74 1001.3
20170218190308 0 133 2.0 12.0 0.03 3.30 0.61 1001.4
20170218185607 0 0 0.0 0.0 0.00 3.27 0.58 1001.8
20170218184906 0 0 0.0 0.0 0.00 3.27 0.58 1001.9
20170218184205 0 0 0.0 0.0 0.00 3.27 0.58 1002.0
20170218183504 0 0 0.0 0.0 0.00 3.27 0.58 1002.0
20170218182803 0 0 0.0 0.0 0.00 3.27 0.58 1001.9
20170218182104 0 0 0.0 0.0 0.00 3.27 0.58 1001.9
20170218181401 0 0 0.0 0.0 0.00 3.27 0.58 1002.0
20170218180700 0 0 0.0 0.0 0.00 3.27 0.58 1002.0
20170218175959 0 0 0.0 0.0 0.00 3.27 0.58 1002.1
20170218175259 0 0 0.0 0.0 0.00 3.27 0.58 1002.1
20170218174557 0 0 0.0 0.0 0.00 3.27 0.58 1002.1
20170218173856 0 0 0.0 0.0 0.00 3.27 0.58 1002.2
20170218173155 0 0 0.0 0.0 0.00 3.27 0.58 1002.2
20170218172454 0 0 0.0 0.0 0.00 3.27 0.58 1002.2
20170218171753 0 0 0.0 0.0 0.00 3.27 0.58 1002.2
20170218171052 0 0 0.0 0.0 0.00 3.27 0.58 1002.2
20170218170351 0 0 0.0 0.0 0.00 3.27 0.58 1002.3
20170218165650 0 0 0.0 0.0 0.00 3.27 0.58 1002.3
20170218164949 0 0 0.0 0.0 0.00 3.27 0.58 1002.1
20170218164248 0 0 0.0 0.0 0.00 3.27 0.58 1002.1
20170218163547 0 0 0.0 0.0 0.00 3.27 0.58 1002.2
20170218162846 0 0 0.0 0.0 0.00 3.27 0.58 1002.2
20170218162145 0 0 0.0 0.0 0.00 3.27 0.58 1002.2
20170218161444 0 0 0.0 0.0 0.00 3.27 0.58 1002.2
20170218160743 0 0 0.0 0.0 0.00 3.27 0.58 1002.3
20170218160042 0 0 0.0 0.0 0.00 3.27 0.58 1002.3
20170218155341 0 0 0.0 0.0 0.00 3.27 0.58 1002.3
20170218154640 0 0 0.0 0.0 0.00 3.27 0.58 1002.4
20170218153939 0 0 0.0 0.0 0.00 3.27 0.58 1002.2
20170218153238 0 0 0.0 0.0 0.00 3.27 0.58 1002.2
20170218152538 0 0 0.0 0.0 0.00 3.27 0.58 1001.9
20170218151836 0 0 0.0 0.0 0.00 3.27 0.58 1002.0
20170218151135 0 0 0.0 0.0 0.00 3.27 0.58 1001.9
20170218150434 0 0 0.0 0.0 0.00 3.27 0.58 1001.8
20170218145733 0 0 0.0 0.0 0.00 3.27 0.58 1001.7
20170218145033 0 0 0.0 0.0 0.00 3.27 0.58 1001.4
20170218144331 0 0 0.0 0.0 0.00 3.27 0.58 1001.5
20170218143630 0 0 0.0 0.0 0.00 3.27 0.58 1001.6
20170218141527 0 0 0.0 0.0 0.00 3.27 0.58 1001.6
20170218140826 0 0 0.0 0.0 0.00 3.27 0.58 1001.7
20170218140125 0 0 0.0 0.0 0.00 3.27 0.58 1001.5
20170218135424 0 0 0.0 0.0 0.00 3.27 0.58 1001.7
20170218134723 0 0 0.0 0.0 0.00 3.27 0.58 1001.7
20170218134022 0 0 0.0 0.0 0.00 3.27 0.58 1001.7
20170218133322 0 0 0.0 0.0 0.00 3.27 0.58 1001.7
20170218132620 0 0 0.0 0.0 0.00 3.27 0.58 1001.7
20170218131919 0 0 0.0 0.0 0.00 3.27 0.58 1001.7
20170218131218 0 0 0.0 0.0 0.24 3.27 0.58 1001.6
20170218130516 0 0 0.0 0.0 0.42 3.27 0.58 1001.5
20170218125815 0 0 0.0 0.0 0.50 3.27 0.58 1001.5
20170218125114 0 0 0.0 0.0 0.50 3.27 0.58 1001.4
20170218124413 0 0 0.0 0.0 0.50 3.27 0.58 1001.4
20170218123712 0 0 0.0 0.0 0.50 3.27 0.58 1001.6
20170218123011 0 0 0.0 1.0 0.50 3.27 0.58 1001.6
20170218122311 0 0 0.0 11.0 0.50 3.27 0.58 1001.6
20170218121609 0 131 4.0 13.0 0.46 3.23 0.54 1001.6
20170218120908 0 189 3.0 12.0 0.16 2.93 0.24 1001.3
20170218120208 0 0 0.0 0.0 0.03 2.80 0.11 1001.2
20170218115506 0 0 0.0 0.0 0.00 2.77 0.08 1001.3
20170218114805 0 0 0.0 0.0 0.00 2.77 0.08 1001.4